Location: ?????
(30.4569°N, 47.8921°E)
Time: 05:03:32
(UTC+00:00)

STARLINK-1011 - Pass Details

Date: 07 June 2020
Orbit: 549 x 550 km, 53.0° (Epoch: 04 July)

Event Time Altitude Azimuth Distance (km) Brightness Sun altitude
Exits shadow 22:48:30 - 102° (ESE) 1,929 6.6 -29.3°
Enters shadow 23:48:31 -67° 226° (SW) 12,317 10.4 -21.3°
Maximum altitude 00:26:03 70° 313° (NW) 581 3.6 -15.3°
